Location: Limerick
(52.6650°N, 8.6230°W)
Time: 23:41:49
(UTC+01:00)

ISS - Pass Details

Date: 17 July 2017
Orbit: 400 x 408 km, 51.6° (Epoch: 24 July)

Event Time Altitude Azimuth Distance (km) Brightness Sun altitude
Exits shadow 04:24:42 - 266° (W) 2,058 -0.6 -8.0°
Reaches altitude 10° 04:26:10 10° 265° (W) 1,456 -1.4 -7.9°
Maximum altitude 04:29:25 76° 181° (S) 420 -3.9 -7.6°
Drops below altitude 10° 04:32:41 10° 95° (E) 1,460 -0.5 -7.3°
Sets 04:34:46 0° 93° (E) 2,321 0.6 -7.1°
